This is the latest recevied weather packets stored in our database for station/object IW5CTE-13. If no packets are shown the sender has not sent any weather packets the latest 10 day(s).
| Time | Temp. | Humidity | Pressure | Rain* | Wind** | Luminosity | Snow |
|---|---|---|---|---|---|---|---|
| 1777768052 | 13.89° C | 68% | 1022.3 hPa | - | - | - | - |
| 1777767452 | 14.44° C | 66% | 1022.5 hPa | - | - | - | - |
| 1777766852 | 14.44° C | 68% | 1022.4 hPa | - | - | - | - |
| 1777766252 | 14.44° C | 66% | 1022.6 hPa | - | - | - | - |
| 1777765652 | 14.44° C | 64% | 1022.6 hPa | - | - | - | - |
| 1777765051 | 14.44° C | 64% | 1022.6 hPa | - | - | - | - |
| 1777764451 | 14.44° C | 61% | 1022.6 hPa | - | - | - | - |
| 1777763852 | 15° C | 60% | 1022.6 hPa | - | - | - | - |
| 1777763252 | 15° C | 59% | 1022.7 hPa | - | - | - | - |
| 1777762652 | 15° C | 58% | 1022.8 hPa | - | - | - | - |
| 1777762052 | 15° C | 57% | 1022.9 hPa | - | - | - | - |
| 1777761451 | 15° C | 55% | 1022.9 hPa | - | - | - | - |
| 1777760852 | 15° C | 55% | 1022.9 hPa | - | - | - | - |
| 1777760252 | 15.56° C | 55% | 1022.9 hPa | - | - | - | - |
| 1777759652 | 15.56° C | 55% | 1022.9 hPa | - | - | - | - |
| 1777759052 | 15° C | 55% | 1022.8 hPa | - | - | - | - |
| 1777758452 | 15.56° C | 54% | 1022.7 hPa | - | - | - | - |
| 1777757852 | 15.56° C | 52% | 1022.6 hPa | - | - | - | - |
| 1777757252 | 15.56° C | 52% | 1022.6 hPa | - | - | - | - |
| 1777756652 | 16.11° C | 50% | 1022.6 hPa | - | - | - | - |
| 1777756051 | 16.11° C | 51% | 1022.6 hPa | - | - | - | - |
| 1777755451 | 16.11° C | 52% | 1022.5 hPa | - | - | - | - |
| 1777754852 | 16.11° C | 50% | 1022.5 hPa | - | - | - | - |
| 1777754252 | 16.11° C | 49% | 1022.6 hPa | - | - | - | - |
| 1777753652 | 16.67° C | 49% | 1022.7 hPa | - | - | - | - |
* Rain since midnight (hover to see other rain measurements)
** Current wind speed in m/s (hover to see current wind gust speed)